Weather in Bytom

Poland     50°21′56″N   18°52′20″E
temp.,
°C
wind,
m/s
gust,
m/s
humid.,
%
clouds,
%
prec.,
mm/h
press.,
hPa
HPBL,
m
17 may, mon
mon1723:00+10ssw35825 0.0 1006102
02:00+9sse238598 0.1 100666
05:00+10ese2293100 1.6 100568
08:00+11se3688100 1.9 1005234
11:00+12s3688100 0.1 1005295
14:00+12s2491100 2.6 1005285
17:00+11ssw2391100 1.4 1004338
20:00+10nw3695100 3.1 1005303
18 may, tue
tue1823:00+10wnw3997100 1.1 1006445
02:00+9w3797100 2.9 1006317
05:00+9wnw51393100 1.7 1007716
08:00+10wnw51188100 1.7 1009770
11:00+13wnw6972100 0.3 10091237
14:00+15wnw7962100 0.7 10091579
17:00+14wnw6966100 0.3 10091325
20:00+12wnw3780100 0.4 1011421
19 may, wed
wed1923:00+9w24902 0.0 101195
02:00+8w38945 0.1 1013227
05:00+7wnw389395 0.0 1013256
08:00+10nw4778100 0.0 1014571
11:00+13wnw4464100 0.3 10131289
14:00+14w4567100 1.3 10131026
17:00+13nw5676100 1.3 1013810
20:00+10nw5989100 2.5 1014495
20 may, thu
thu2023:00+8nw4895100 0.0 1015317
02:00+7nw3896100 0.0 1015340
05:00+8nw4995100 0.0 1016420
08:00+9nnw51091100 0.1 1017628
11:00+11n5770100 0.4 10181053
14:00+15nnw5752100 0.6 10171766
17:00+13nw687278 1.3 10171129
20:00+10nw5108784 2.6 1018481
21 may, fri
fri2123:00+8wnw410935 0.2 1020310
02:00+6wnw399610 0.2 1021297
05:00+5w25955 0.1 1022154
08:00+8w36815 0.1 1022485
11:00+12wnw466468 0.4 10211365
14:00+14wsw4653100 0.6 10191622
17:00+15wsw24506 0.0 10181539
20:00+12s3469100 0.0 1016100